Miscellaneous Local Product
Issued by NWS North Platte, NE

Home | Current Version | Previous Version | Text Only | Print | Product List | Glossary On
Versions: 1 2 3 4 5 6 7 8 9 10 11 12 13 14 15 16 17 18 19 20 21 22 23 24 25 26 27 28 29 30 31 32 33 34 35 36 37 38 39 40 41 42 43 44 45 46 47 48 49 50
000
AXUS43 KLBF 240410
MISLBF


WESTERN AND NORTH CENTRAL NEBRASKA HOURLY WEATHER ROUNDUP
NATIONAL WEATHER SERVICE NORTH PLATTE NE
1100 PM CDT SAT MAY 23 2015

***STATIONS NOT REPORTING VARIABLES SUCH AS SKY/WEATHER OR
PRESSURE ARE PROVIDED BY THE NEBRASKA DEPARTMENT OF
ROADS...RAWS...AND APRS NETWORKS...AND ARE NOT UNDER
NATIONAL WEATHER SERVICE QUALITY CONTROL***

...OBSERVATIONS IN AND NEAR THE EASTERN PANHANDLE OF NEBRASKA...

CITY           SKY/WX    TMP DP  RH WIND       PRES   REMARKS
PINE RIDGE     LGT RAIN  53  51  93 E9        30.01R
CHADRON        CLOUDY    55  52  89 E9        29.98S
ALLIANCE       CLOUDY    54  52  93 E16       29.96S
SIDNEY         LGT RAIN  51  47  86 E13       29.94F
WHITECLAY        N/A     52  50  93 E8          N/A
BIG SPRINGS      N/A     55  54  96 E13         N/A
$$

...OBSERVATIONS IN NORTH CENTRAL NEBRASKA...

CITY           SKY/WX    TMP DP  RH WIND       PRES   REMARKS
VALENTINE      CLOUDY    55  53  93 E12       30.02S
THEDFORD       CLOUDY    55  54  97 E14G21    30.00S FOG
AINSWORTH      RAIN      55  55  99 E12       30.02F
O`NEILL        CLOUDY    57  56  98 E8        30.05S FOG
ORD            LGT RAIN  56  55  97 E8        30.00F FOG
BROKEN BOW     LGT RAIN  57  55  93 E12       30.00R FOG
VALENTINE NWR    N/A     54  54  99 E12         N/A
SPRINGVIEW       N/A     55  53  94 CALM        N/A
ROSE             N/A     55  55  99 NE9         N/A
NEWPORT          N/A     56  56  99 E8          N/A
SARGENT          N/A     56  55  97 E3          N/A
COMSTOCK         N/A     60  60  99 E7          N/A
EWING            N/A     57  55  95 E5          N/A
$$

...OBSERVATIONS IN SOUTHWEST NEBRASKA AND FAR NORTHEAST COLORADO...

CITY           SKY/WX    TMP DP  RH WIND       PRES   REMARKS
WRAY           FAIR     N/A N/A N/A NE7       29.91R
IMPERIAL       CLOUDY    57  54  89 E17       29.91F
OGALLALA       CLOUDY    55  54  97 E14       29.95S FOG
NORTH PLATTE   CLOUDY    56  54  93 E17       29.97R
MCCOOK         CLOUDY    57  55  93 E13       29.93F
LEXINGTON      CLOUDY    58  57  95 E10       29.97F FOG
PAXTON           N/A     55  53  95 E12         N/A
GOTHENBURG       N/A     56  54  92 E8          N/A
CALLAWAY         N/A     56  56  99 E12         N/A
$$

...NORTH PLATTE AREA...

CITY           SKY/WX    TMP DP  RH WIND       PRES   REMARKS
AIRPORT        CLOUDY    56  54  93 E17       29.97R
DOWNTOWN         N/A     55  53  95 E5G12       N/A
$$

...SOME WEATHER OBSERVATIONS FROM AROUND THE REGION...

CITY           SKY/WX    TMP DP  RH WIND       PRES   REMARKS
DENVER         MOCLDY    45  41  86 CALM      29.94S
LARAMIE        LGT RAIN  40  40 100 NW14      29.99R WCI  32
CHEYENNE       CLOUDY    46  44  93 SE5       29.97R
SCOTTSBLUFF    LGT RAIN  55  53  93 E15       29.92F
RAPID CITY     CLOUDY    54  52  93 E13       30.03R
PIERRE         CLOUDY    57  54  89 NE6       30.04F
WINNER         CLOUDY    57  53  86 E8        30.04F
SIOUX FALLS    LGT RAIN  61  55  81 E3        30.07F
OMAHA          CLOUDY    62  60  93 E9        30.01F
GRAND ISLAND   CLOUDY    59  57  93 E10       29.99F
KANSAS CITY    RAIN      61  59  93 E12       30.04F FOG
WICHITA        CLOUDY    61  58  90 NW3       29.92R
HAYS           CLOUDY    57  52  82 NE6       29.94S
LIBERAL        CLOUDY    59  55  88 SE15      29.89R
GOODLAND       CLOUDY    53  51  93 SE5       29.90R
$$



USA.gov is the U.S. government's official web portal to all federal, state and local government web resources and services.